When you browse on this site, cookies collect data to enhance your experience and personalize the content and advertising you see.
Visit our Privacy Policy to learn more. By continuing to use the site, you agree to this use of cookies and data.

Meteo orario Radomyshl

Oggi, 28 Settembre, Lunedi

Tempo Temperatura Precipitazioni Vento Pressione Umidità
00:00 +10°C° 0 mm 2 m/s 748 mm Hg 91%
01:00 +9°C° 0 mm 2 m/s 749 mm Hg 90%
02:00 +9°C° 0 mm 2 m/s 749 mm Hg 90%
03:00 +9°C° 0 mm 2 m/s 750 mm Hg 90%
04:00 +8°C° 0 mm 2 m/s 750 mm Hg 90%
05:00 +9°C° 0 mm 1 m/s 750 mm Hg 90%
06:00 +9°C° 0 mm 2 m/s 751 mm Hg 85%
07:00 +10°C° 0 mm 2 m/s 751 mm Hg 81%
08:00 +12°C° 0 mm 2 m/s 751 mm Hg 76%
09:00 +14°C° 0 mm 2 m/s 751 mm Hg 68%
10:00 +16°C° 0 mm 2 m/s 751 mm Hg 59%
11:00 +17°C° 0 mm 2 m/s 752 mm Hg 50%
12:00 +18°C° 0 mm 2 m/s 752 mm Hg 48%
13:00 +19°C° 0 mm 2 m/s 751 mm Hg 46%
14:00 +20°C° 0 mm 3 m/s 751 mm Hg 43%
15:00 +19°C° 0 mm 3 m/s 751 mm Hg 47%
16:00 +18°C° 0 mm 3 m/s 751 mm Hg 52%
17:00 +17°C° 0 mm 3 m/s 750 mm Hg 56%
18:00 +16°C° 0 mm 3 m/s 750 mm Hg 57%
19:00 +14°C° 0 mm 3 m/s 750 mm Hg 58%
20:00 +13°C° 0 mm 3 m/s 750 mm Hg 60%
21:00 +13°C° 0 mm 3 m/s 750 mm Hg 60%
22:00 +13°C° 0 mm 3 m/s 750 mm Hg 60%
23:00 +13°C° 0 mm 3 m/s 750 mm Hg 60%

Domani, 29 Settembre, Martedi

Tempo Temperatura Precipitazioni Vento Pressione Umidità
00:00 +12°C° 0 mm 3 m/s 749 mm Hg 62%
01:00 +12°C° 0 mm 3 m/s 749 mm Hg 64%
02:00 +11°C° 0 mm 3 m/s 749 mm Hg 66%
03:00 +11°C° 0 mm 3 m/s 749 mm Hg 66%
04:00 +12°C° 0 mm 3 m/s 748 mm Hg 67%
05:00 +12°C° 0 mm 3 m/s 748 mm Hg 67%
06:00 +13°C° 0 mm 4 m/s 748 mm Hg 66%
07:00 +14°C° 0 mm 4 m/s 747 mm Hg 65%
08:00 +14°C° 0 mm 4 m/s 747 mm Hg 64%
09:00 +17°C° 0 mm 4 m/s 747 mm Hg 61%
10:00 +19°C° 0 mm 4 m/s 746 mm Hg 58%
11:00 +20°C° 0 mm 4 m/s 746 mm Hg 55%
12:00 +21°C° 0 mm 4 m/s 746 mm Hg 54%
13:00 +21°C° 0 mm 4 m/s 745 mm Hg 52%
14:00 +22°C° 0 mm 3 m/s 745 mm Hg 51%
15:00 +21°C° 0 mm 3 m/s 744 mm Hg 53%
16:00 +21°C° 0 mm 3 m/s 744 mm Hg 56%
17:00 +20°C° 0 mm 3 m/s 743 mm Hg 59%
18:00 +19°C° 0.1 mm 3 m/s 743 mm Hg 62%
19:00 +18°C° 0.1 mm 3 m/s 743 mm Hg 66%
20:00 +18°C° 0.1 mm 3 m/s 743 mm Hg 70%
21:00 +17°C° 0.5 mm 3 m/s 742 mm Hg 73%
22:00 +17°C° 0.5 mm 3 m/s 742 mm Hg 77%
23:00 +16°C° 0.5 mm 3 m/s 741 mm Hg 80%

Dopodomani, 30 Settembre, Mercoledi

Tempo Temperatura Precipitazioni Vento Pressione Umidità
00:00 +15°C° 0.2 mm 4 m/s 741 mm Hg 79%
01:00 +15°C° 0.2 mm 5 m/s 741 mm Hg 77%
02:00 +15°C° 0.2 mm 5 m/s 740 mm Hg 76%
03:00 +15°C° 0.3 mm 6 m/s 740 mm Hg 75%
04:00 +15°C° 0.3 mm 6 m/s 739 mm Hg 73%
05:00 +15°C° 0.3 mm 6 m/s 739 mm Hg 71%
06:00 +14°C° 0.4 mm 6 m/s 739 mm Hg 72%
07:00 +14°C° 0.4 mm 6 m/s 739 mm Hg 74%
08:00 +14°C° 0.4 mm 6 m/s 739 mm Hg 75%
09:00 +14°C° 0.9 mm 6 m/s 738 mm Hg 78%
10:00 +12°C° 0.9 mm 7 m/s 738 mm Hg 81%
11:00 +12°C° 0.9 mm 7 m/s 738 mm Hg 85%
12:00 +12°C° 1 mm 7 m/s 738 mm Hg 86%
13:00 +12°C° 1 mm 7 m/s 738 mm Hg 88%
14:00 +12°C° 1 mm 7 m/s 738 mm Hg 89%
15:00 +12°C° 0.3 mm 7 m/s 738 mm Hg 90%
16:00 +12°C° 0.3 mm 7 m/s 738 mm Hg 90%
17:00 +12°C° 0.3 mm 7 m/s 738 mm Hg 90%
18:00 +12°C° 0.1 mm 7 m/s 739 mm Hg 91%
19:00 +13°C° 0.1 mm 6 m/s 739 mm Hg 91%
20:00 +13°C° 0.1 mm 6 m/s 740 mm Hg 91%
21:00 +13°C° 0.1 mm 5 m/s 740 mm Hg 92%
22:00 +13°C° 0.1 mm 4 m/s 740 mm Hg 93%
23:00 +13°C° 0.1 mm 4 m/s 740 mm Hg 94%

1 Ottobre, Giovedi

Tempo Temperatura Precipitazioni Vento Pressione Umidità
00:00 +12°C° 0 mm 3 m/s 740 mm Hg 94%
01:00 +12°C° 0 mm 3 m/s 740 mm Hg 95%
02:00 +12°C° 0 mm 2 m/s 740 mm Hg 96%
03:00 +12°C° 0 mm 2 m/s 740 mm Hg 95%
04:00 +12°C° 0 mm 2 m/s 740 mm Hg 95%
05:00 +13°C° 0 mm 2 m/s 740 mm Hg 95%
06:00 +12°C° 0.2 mm 3 m/s 741 mm Hg 93%
07:00 +12°C° 0.2 mm 3 m/s 741 mm Hg 92%
08:00 +13°C° 0.2 mm 3 m/s 741 mm Hg 90%
09:00 +13°C° 0.1 mm 3 m/s 741 mm Hg 85%
10:00 +14°C° 0.1 mm 3 m/s 741 mm Hg 81%
11:00 +15°C° 0.1 mm 4 m/s 741 mm Hg 76%
12:00 +17°C° 0.2 mm 4 m/s 741 mm Hg 72%
13:00 +18°C° 0.2 mm 4 m/s 741 mm Hg 68%
14:00 +19°C° 0.2 mm 5 m/s 741 mm Hg 64%
15:00 +18°C° 0.8 mm 4 m/s 741 mm Hg 69%
16:00 +17°C° 0.8 mm 4 m/s 741 mm Hg 73%
17:00 +15°C° 0.8 mm 4 m/s 741 mm Hg 78%
18:00 +15°C° 0.3 mm 4 m/s 741 mm Hg 82%
19:00 +14°C° 0.3 mm 3 m/s 741 mm Hg 86%
20:00 +13°C° 0.3 mm 3 m/s 741 mm Hg 90%
21:00 +13°C° 0.3 mm 3 m/s 741 mm Hg 91%
22:00 +13°C° 0.3 mm 3 m/s 740 mm Hg 92%
23:00 +12°C° 0.3 mm 3 m/s 740 mm Hg 94%

2 Ottobre, Venerdi

Tempo Temperatura Precipitazioni Vento Pressione Umidità
00:00 +12°C° 0.1 mm 3 m/s 740 mm Hg 93%
01:00 +12°C° 0.1 mm 3 m/s 740 mm Hg 92%
02:00 +12°C° 0.1 mm 3 m/s 740 mm Hg 92%
03:00 +12°C° 0 mm 3 m/s 740 mm Hg 93%
04:00 +11°C° 0 mm 3 m/s 740 mm Hg 94%
05:00 +11°C° 0 mm 3 m/s 740 mm Hg 95%
06:00 +11°C° 0.1 mm 3 m/s 741 mm Hg 94%
07:00 +12°C° 0.1 mm 3 m/s 741 mm Hg 92%
08:00 +12°C° 0.1 mm 3 m/s 741 mm Hg 91%
09:00 +14°C° 0.3 mm 3 m/s 741 mm Hg 85%
10:00 +16°C° 0.3 mm 3 m/s 741 mm Hg 79%
11:00 +17°C° 0.3 mm 3 m/s 741 mm Hg 72%
12:00 +18°C° 0.8 mm 3 m/s 741 mm Hg 70%
13:00 +18°C° 0.8 mm 3 m/s 742 mm Hg 68%
14:00 +19°C° 0.8 mm 3 m/s 742 mm Hg 65%
15:00 +18°C° 0.5 mm 2 m/s 742 mm Hg 70%
16:00 +17°C° 0.5 mm 2 m/s 742 mm Hg 75%
17:00 +16°C° 0.5 mm 2 m/s 742 mm Hg 80%
18:00 +15°C° 0.1 mm 2 m/s 742 mm Hg 83%
19:00 +14°C° 0.1 mm 2 m/s 742 mm Hg 86%
20:00 +13°C° 0.1 mm 2 m/s 743 mm Hg 89%
21:00 +13°C° 0 mm 2 m/s 743 mm Hg 90%
22:00 +13°C° 0 mm 2 m/s 743 mm Hg 90%
23:00 +13°C° 0 mm 2 m/s 743 mm Hg 91%

3 Ottobre, Sabato

Tempo Temperatura Precipitazioni Vento Pressione Umidità
00:00 +13°C° 0 mm 2 m/s 743 mm Hg 91%
01:00 +12°C° 0 mm 2 m/s 743 mm Hg 91%
02:00 +12°C° 0 mm 2 m/s 743 mm Hg 91%
03:00 +11°C° 0 mm 3 m/s 743 mm Hg 91%
04:00 +12°C° 0 mm 3 m/s 744 mm Hg 90%
05:00 +12°C° 0 mm 3 m/s 744 mm Hg 90%
06:00 +12°C° 0 mm 3 m/s 744 mm Hg 87%
07:00 +13°C° 0 mm 4 m/s 744 mm Hg 84%
08:00 +14°C° 0 mm 4 m/s 744 mm Hg 81%
09:00 +15°C° 0 mm 4 m/s 744 mm Hg 77%
10:00 +16°C° 0 mm 5 m/s 745 mm Hg 73%
11:00 +19°C° 0 mm 5 m/s 745 mm Hg 68%
12:00 +20°C° 0 mm 5 m/s 745 mm Hg 65%
13:00 +21°C° 0 mm 5 m/s 745 mm Hg 62%
14:00 +22°C° 0 mm 5 m/s 745 mm Hg 58%
15:00 +21°C° 0 mm 5 m/s 745 mm Hg 62%
16:00 +20°C° 0 mm 4 m/s 745 mm Hg 66%
17:00 +19°C° 0 mm 4 m/s 744 mm Hg 69%
18:00 +19°C° 0 mm 4 m/s 745 mm Hg 71%
19:00 +17°C° 0 mm 5 m/s 745 mm Hg 73%
20:00 +16°C° 0 mm 5 m/s 745 mm Hg 75%
21:00 +16°C° 0 mm 5 m/s 745 mm Hg 76%
22:00 +16°C° 0 mm 5 m/s 745 mm Hg 76%
23:00 +16°C° 0 mm 5 m/s 746 mm Hg 77%
Mostrare altro